Regional Weather Roundup
Issued by NWS

Home | Current Version | Previous Version | Text Only | Print | Product List | Glossary On
Versions: 1 2 3 4 5 6 7 8 9 10 11 12 13 14 15 16 17 18 19 20 21 22 23 24 25 26 27 28 29 30 31 32 33 34 35 36 37 38 39 40 41 42 43 44 45 46 47 48 49 50
000
ASUS46 KSTO 221415
RWRCA

NORTHERN AND CENTRAL CA REGIONAL WEATHER ROUNDUP
NATIONAL WEATHER SERVICE SACRAMENTO CA
700 AM PDT TUE AUG 22 2017

NOTE: FAIR INDICATES FEW OR NO CLOUDS BELOW 12,000 FEET WITH NO
SIGNIFICANT WEATHER AND/OR OBSTRUCTIONS TO VISIBILITY.

CAZ001-003-221500-
NORTHWEST AREA

CITY           SKY/WX    TMP DP  RH WIND       PRES   REMARKS
CRESCENT CITY  CLOUDY    53  53 100 CALM      30.06R FOG
UKIAH          CLEAR     57  55  93 CALM      30.04R
$$

CAZ006-505>513-221500-
BAY AREA

CITY           SKY/WX    TMP DP  RH WIND       PRES   REMARKS
SANTA ROSA     CLOUDY    58  56  93 NW3       30.03R FOG
SAN RAFAEL     N/A       58  MM  MM MISG
NAPA           CLEAR     57  55  93 NW5       30.02S
CONCORD        PTCLDY    61  56  83 W7        30.02R
OAKLAND CITY   N/A      MM  MM  MM MISG
OAKLAND        CLOUDY    61  58  90 W5        30.03R
SAN FRAN CITY  N/A       60  MM  83 MISG
SAN FRAN ARPT  MOCLDY    61  55  81 W8        30.02S
LIVERMORE      PTCLDY    59  56  89 W5        30.02R FOG
HAYWARD        CLOUDY    62  54  74 N5        30.03R
REDWOOD CITY   N/A       64  MM  82 MISG
MOFFETT ARPT   CLOUDY    64  59  83 SE3       30.03R
SAN JOSE ARPT  CLOUDY    65  59  81 VRB3      30.03R HAZE
$$
CAZ034-037-514>518-221500-
CENTRAL COAST

CITY           SKY/WX    TMP DP  RH WIND       PRES   REMARKS
WATSONVILLE    CLEAR     56  55  97 CALM      30.04R
SALINAS        CLEAR     57  55  93 E3        30.03R
MONTEREY       CLEAR     57  54  89 CALM      30.04R
SAN LUIS OBISP CLEAR     57  53  86 CALM      30.03R
SANTA MARIA    CLEAR     55  54  96 CALM      30.03R
$$
CAZ015-016-221500-
NORTHERN SACRAMENTO VALLEY

CITY           SKY/WX    TMP DP  RH WIND       PRES   REMARKS
REDDING        PTCLDY    69  61  75 NE3       29.99R
RED BLUFF      PTCLDY    70  62  76 CALM      29.99R
OROVILLE       MOCLDY    68  62  81 NW3       29.99R
$$
CAZ016>018-221500-
SOUTHERN SACRAMENTO VALLEY

CITY           SKY/WX    TMP DP  RH WIND       PRES   REMARKS
AUBURN         MOCLDY    64  64 100 SW5       30.03R
LINCOLN        FAIR      64  54  68 S6        29.98R
MARYSVILLE     CLOUDY    66  59  78 VRB5      29.98S
SAC INTL ARPT  PTCLDY    62  57  83 CALM      29.97R
MATHER AIRPORT PTCLDY    59  55  88 SE7       29.99R
DOWNTOWN SAC   N/A       63  MM  MM MISG
SAC EXEC ARPT  PTCLDY    61  57  87 CALM      29.98R
VACAVILLE      PTCLDY    66  57  72 CALM      29.99R
$$
CAZ019>021-221500-
SAN JOAQUIN VALLEY

CITY           SKY/WX    TMP DP  RH WIND       PRES   REMARKS
STOCKTON       PTCLDY    61  58  90 NE5       30.00R
MODESTO        CLEAR     64  57  78 NW5       29.99R
MERCED         CLEAR     62  56  80 W3        29.99R
LEMOORE        PTCLDY    67  57  70 W6        30.00R
FRESNO         PTCLDY    66  58  75 W5        30.00R
HANFORD        CLEAR     66  59  78 CALM      30.00R
PORTERVILLE      N/A     66  61  84 SW3       30.01R
BAKERSFIELD    CLEAR     71  61  70 W5        30.01R
$$
CAZ011-012-071-221500-
NORTHERN MOUNTAINS

CITY           SKY/WX    TMP DP  RH WIND       PRES   REMARKS
YREKA          CLEAR     57  41  55 NE5       30.10R HAZE
MOUNT SHASTA   CLEAR     54  51  90 CALM      30.15R
ALTURAS        CLOUDY    57  48  72 S3        30.18S
$$
CAZ011-012-071-221500-
SIERRA NEVADA MTNS

CITY           SKY/WX    TMP DP  RH WIND       PRES   REMARKS
BLUE CANYON    CLOUDY    70  41  34 CALM      30.25S
TRUCKEE        MOCLDY    52  52 100 CALM      30.31R
TAHOE VLY ARPT CLOUDY    54  53  97 CALM      30.31F
MAMMOTH LAKES  FAIR      43  37  79 N3        30.38R
$$



USA.gov is the U.S. government's official web portal to all federal, state and local government web resources and services.